Location: Northern Prairie Star Party
(53.2167°N, 112.5333°W)
Time: 03:24:39
(UTC-07:00)

Daily predictions for brighter satellites

Satellite Brightness Start Highest point End
(mag) Time Altitude Azimuth Time Altitude Azimuth Time Altitude Azimuth
SL-16 R/B 4.5 02:31:29 21° NNW 02:31:29 21° NNW 02:33:24 10° NNW
Cosmos 2263 Rocket 4.4 02:58:37 17° N 02:58:37 17° N 03:01:04 10° NNE
ADEOS Rocket 3.8 03:06:56 10° NNE 03:13:03 52° ENE 03:13:03 52° ENE
Okean O Rocket 4.4 03:11:19 10° NE 03:13:01 15° ENE 03:13:01 15° ENE
Cosmos 2278 Rocket 3.7 03:25:17 30° N 03:25:17 30° N 03:28:22 10° NNE
CZ-2D R/B 3.7 03:19:00 10° NNE 03:21:44 31° NNE 03:21:44 31° NNE
Cosmos 2369 Rocket 4.0 03:25:33 24° ESE 03:25:54 24° ESE 03:30:19 10° NE
Resurs 1-4 Rocket 3.7 03:21:05 10° NNE 03:23:43 30° NNE 03:23:43 30° NNE
Cosmos 2344 4.1 03:29:14 53° NW 03:30:13 56° NNW 03:40:16 10° NE
Lacrosse 4 Rocket 4.2 03:35:44 15° NNE 03:35:44 15° NNE 03:36:30 10° NNE
Cosmos 2279 Rocket 4.2 03:47:26 68° ENE 03:47:26 68° ENE 03:53:10 10° NNE
Lacrosse 5 rocket 3.9 03:56:58 16° ENE 03:56:58 16° ENE 03:57:48 10° ENE
ATLAS 5 CENTAUR R/B 3.8 04:04:11 21° SE 04:05:07 22° ESE 04:09:02 10° ENE
MOS 1 Rocket 4.1 04:00:35 10° NNE 04:06:00 58° E 04:06:18 57° ESE
CZ-4B R/B 4.2 04:04:20 10° NNE 04:09:42 45° E 04:12:00 30° SSE
Cosmos 921 Rocket 4.3 04:11:17 37° E 04:11:17 37° E 04:14:38 10° NE
Cosmos 1943 Rocket 3.9 04:09:50 17° SSE 04:12:51 27° ESE 04:17:26 10° NE
ATLAS CENTAUR R/B 4.3 04:15:19 32° S 04:15:19 32° S 04:22:28 10° SSE
Iridium 4 Rocket 3.8 04:15:31 10° N 04:20:37 71° NNW 04:20:37 71° NNW
Cosmos 1862 Rocket 3.8 04:37:49 65° E 04:37:51 65° E 04:42:10 10° NNE
PAYLOAD B 4.2 04:36:02 10° NNE 04:41:36 80° ESE 04:43:39 41° S
Cosmos 1371 Rocket 4.1 04:43:28 50° S 04:44:45 72° ESE 04:49:56 10° NNE
Cosmos 2297 Rocket 4.1 04:40:32 10° NNW 04:45:16 26° NE 04:49:59 10° E
ARIANE 5 R/B 4.1 04:41:35 10° N 04:43:54 21° NNW 04:43:54 21° NNW
ADEOS II 2.1 04:40:42 10° NNE 04:46:00 76° ESE 04:48:14 36° S
Meteor 1-31 Rocket 4.4 04:43:38 10° NNE 04:47:13 33° E 04:50:24 12° SSE
Thor Agena Rocket 3.7 04:42:53 10° SSE 04:48:04 71° ENE 04:53:13 10° NNW
Okean O Rocket 1.7 04:46:39 10° NNE 04:50:29 64° NNW 04:50:29 64° NNW
Lacrosse 5 3.4 04:49:14 21° S 04:51:25 29° SE 04:55:46 10° ENE
Cosmos 2242 Rocket 4.1 04:53:58 47° NNW 04:53:58 47° NNW 04:57:28 10° N
CZ-4B DEB 4.1 04:47:50 10° NNE 04:53:25 88° ESE 04:56:01 33° SSW
USA 234 4.1 04:47:23 10° ENE 04:53:34 43° SE 04:57:37 21° SSW
Cosmos 2084 Rocket 4.2 04:54:27 36° N 04:54:27 36° N 04:57:22 10° NE
MOS 1-B 4.5 04:50:44 10° N 04:56:20 51° WNW 04:56:54 49° W
Cosmos 2219 3.4 04:53:16 10° NNW 04:58:59 73° NE 05:04:39 10° SE
ADEOS Rocket 3.7 04:52:39 10° N 04:59:06 40° WNW 05:00:00 38° WNW
CZ-2D R/B 3.6 04:59:55 10° N 05:03:05 21° NW 05:03:05 21° NW
Cosmos 2227 Rocket 3.6 05:00:16 10° NNW 05:05:33 37° NE 05:10:48 10° ESE
Resurs 1-4 Rocket 3.7 05:01:50 10° N 05:04:49 20° NW 05:04:49 20° NW
Meteor PRIRODA 3.8 05:04:20 10° NNE 05:08:01 71° ESE 05:09:03 44° S
Cosmos 2278 Rocket 3.9 05:07:07 17° NW 05:08:19 18° NNW 05:12:14 10° NNE
Cosmos 407 Rocket 3.7 05:08:27 48° WSW 05:08:27 48° WSW 05:13:26 10° S
Cosmos 2369 Rocket 2.1 05:07:22 41° SW 05:09:23 76° WNW 05:15:05 10° NNE
Lacrosse 4 Rocket 3.3 05:12:04 17° NNW 05:12:04 17° NNW 05:14:42 10° NNE
Cosmos 676 Rocket 4.0 05:07:00 10° NNW 05:12:14 60° WSW 05:17:27 10° S
IRAS Rocket 4.2 05:06:53 10° NNE 05:12:19 63° WNW 05:14:31 36° SW
COSMO-SKYMED 1 3.1 05:08:34 10° SSE 05:12:50 60° ENE 05:17:08 10° N
CZ-4B R/B 4.4 05:10:37 10° NNE 05:14:28 59° ESE 05:18:29 10° S
Cosmos 2221 Rocket 4.5 05:10:19 10° S 05:14:44 52° E 05:19:11 10° NNE
Nadezhda 2 Rocket 4.4 05:13:32 10° NNW 05:19:30 57° W 05:25:28 10° S
Cosmos 2266 Rocket 4.4 05:15:33 10° NNW 05:21:09 37° W 05:22:50 32° WSW
Cosmos 972 Rocket 4.0 05:18:46 31° SW 05:21:20 73° WNW 05:27:04 10° NNE
Abrixas 4.2 05:22:05 24° SSE 05:22:05 24° SSE 05:24:16 10° ESE
Cosmos 1933 3.4 05:25:11 49° WSW 05:25:44 53° WNW 05:29:46 10° N
Cosmos 1140 Rocket 3.4 05:24:02 10° NNW 05:29:14 68° WSW 05:34:25 10° SSE
ERS-2 2.3 05:28:40 10° N 05:32:18 52° WNW 05:32:56 45° WSW
IRS-1C Rocket 4.4 05:27:29 10° N 05:32:30 45° WNW 05:34:44 29° WSW
CZ-4B R/B 3.8 05:29:19 10° N 05:32:40 30° NW 05:32:40 30° NW
Lacrosse 5 rocket 1.0 05:32:40 42° WNW 05:33:47 81° NNE 05:37:23 10° ESE
Cosmos 1867 3.7 05:32:55 31° WSW 05:35:29 62° NW 05:40:56 10° NE
Sich 1 Rocket 4.1 05:31:43 10° NNW 05:35:55 37° W 05:40:03 10° SSW
Cosmos 1908 Rocket 4.1 05:33:56 10° NNW 05:38:02 36° W 05:42:09 10° SSW
Cosmos 614 Rocket 3.8 05:33:01 10° NNW 05:38:06 72° WSW 05:43:12 10° SSE
PSLV R/B 4.0 05:35:08 10° N 05:39:02 38° WNW 05:39:57 34° W
Okean 1-7 3.2 05:34:53 10° S 05:39:08 74° E 05:43:25 10° NNE
Cosmos 1633 4.3 05:39:26 10° N 05:42:50 35° ENE 05:46:13 10° SE
SKYMED 3 4.4 05:38:32 10° S 05:42:52 75° WSW 05:47:15 10° NNW
Cosmos 1745 Rocket 3.9 05:36:49 10° NNW 05:43:01 85° W 05:49:10 10° S
Cosmos 1782 Rocket 3.7 05:39:20 10° NNW 05:43:41 50° W 05:47:59 10° S
MOS 1 Rocket 4.5 05:39:14 10° N 05:43:56 30° WNW 05:45:37 25° W
Okean-O 2.5 05:40:58 10° N 05:45:25 69° WNW 05:49:50 10° SSW
Cosmos 921 Rocket 3.9 05:48:06 27° W 05:49:00 30° NW 05:52:48 10° N
ATLAS 5 CENTAUR R/B 1.9 05:45:46 21° SW 05:49:08 85° NW 05:54:36 10° NE
Cosmos 1386 Rocket 4.5 05:43:32 10° N 05:49:36 85° E 05:55:42 10° S
Cosmos 1417 Rocket 4.4 05:43:53 10° SSW 05:50:04 81° WNW 05:56:15 10° N
CZ-4B R/B 3.7 05:45:06 10° N 05:50:14 39° WNW 05:53:55 18° WSW
Meteor 2-10 Rocket 3.3 05:47:36 10° SSW 05:52:36 71° WNW 05:57:43 10° N
Meteor 1-28 Rocket 3.0 05:49:11 10° S 05:52:54 79° WSW 05:56:42 10° NNW
Meteor 1-20 Rocket 4.2 05:47:24 10° NNW 05:53:09 72° W 05:58:46 10° S
Cosmos 1850 Rocket 4.0 05:49:08 10° NNW 05:54:27 65° WSW 05:59:42 10° S
Cosmos 2263 4.4 05:51:18 19° WSW 05:55:09 53° NW 06:00:41 10° NNE
Cosmos 1943 Rocket 2.1 05:51:24 14° SW 05:56:11 66° NW 06:01:46 10° NNE
Cosmos 1624 Rocket 4.4 05:53:48 19° WSW 05:57:16 45° NW 06:02:24 10° NNE
Cosmos 2056 Rocket 3.8 05:55:13 19° WSW 05:58:40 45° NW 06:03:44 10° NNE
Cosmos 1782 3.3 05:55:29 10° S 05:59:24 63° E 06:03:22 10° NNE
SKYMED 2 3.7 05:56:44 10° S 06:00:58 51° W 06:05:15 10° NNW
Cosmos 1602 4.4 06:00:54 10° N 06:04:50 59° ENE 06:08:45 10° SSE
Cosmos 2082 4.0 05:59:41 10° NNW 06:05:24 71° NE 06:11:03 10° SE
NOAA 6 4.0 06:01:05 10° NNE 06:06:17 77° WNW 06:11:25 10° SSW
Ariane Rocket 3.8 06:01:31 10° NNE 06:06:32 55° E 06:11:31 10° S
Okean 2 Rocket 3.4 06:02:32 10° NNW 06:06:39 40° W 06:10:45 10° SSW
BREEZE M DEB (TANK) 4.0 05:59:47 15° WSW 06:10:49 64° S 06:14:55 10° E
CZ-4C R/B 2.7 06:06:08 10° SSW 06:11:31 64° SE 06:17:43 10° NE
Cosmos 1420 Rocket 4.1 06:10:08 10° SSW 06:15:20 84° ESE 06:20:33 10° NNE
Cosmos 1606 3.0 06:11:32 10° S 06:15:24 72° E 06:19:19 10° NNE
Meteor 1-31 Rocket 3.7 06:18:13 10° N 06:21:39 29° WNW 06:25:03 10° SW
Cosmos 1703 Rocket 4.3 06:20:32 10° SW 06:24:27 32° WNW 06:28:24 10° N
ADEOS II 3.3 06:21:10 10° N 06:25:14 23° NW 06:29:12 10° WSW
Cosmos 2151 Rocket 3.8 06:21:26 10° NNW 06:25:51 51° W 06:30:12 10° S
Okean O Rocket 3.4 06:24:35 10° NNW 06:26:40 13° NW 06:27:57 12° WNW
CZ-4 R/B 3.1 06:23:45 10° NNE 06:27:44 40° E 06:31:39 10° SSE
Okean 1 Rocket 3.4 06:23:36 10° N 06:28:04 74° ENE 06:32:28 10° SSE
Cosmos 2263 Rocket 4.3 06:25:38 10° NNW 06:29:44 20° NNE 06:33:49 10° ENE
Meteor 2-6 Rocket 4.2 06:24:24 10° S 06:29:48 86° ESE 06:35:17 10° NNE
Cosmos 2297 Rocket 2.2 06:24:23 10° NNW 06:30:06 89° ENE 06:35:46 10° SSE
Lacrosse 5 1.9 06:28:53 10° WSW 06:33:59 88° SSE 06:39:05 10° ENE
USA 234 3.3 06:30:27 10° ENE 06:37:01 89° NNW 06:43:34 10° WSW
S3M 4.2 06:31:55 10° SSW 06:38:03 51° WNW 06:44:10 10° N
CSL-04 Debris 4.5 06:32:51 10° NNE 06:38:17 74° ESE 06:43:40 10° S
Cosmos 1452 Rocket 3.8 06:34:56 10° SW 06:40:02 47° NW 06:45:10 10° NNE
Cosmos 2219 4.2 06:38:06 10° NW 06:42:38 25° WSW 06:47:07 10° SSW
CZ-3B DEB -1.3 06:41:59 15° WNW 06:43:02 87° NNE 06:44:40 10° ESE
Cosmos 1553 Rocket 4.3 06:40:01 10° SW 06:45:56 44° WNW 06:52:00 10° N
Meteor 1-11 Rocket 3.9 06:42:28 10° NNW 06:48:23 63° W 06:54:13 10° S
COSMO-SKYMED 1 3.9 06:46:12 10° SW 06:49:23 20° W 06:52:36 10° NW
Cosmos 2227 Rocket 2.3 06:44:19 10° NW 06:49:54 57° WSW 06:55:26 10° S
Lacrosse 4 Rocket 3.8 06:51:38 10° N 06:52:18 10° N 06:52:57 10° N
Cosmos 2369 Rocket 3.5 06:49:52 10° W 06:54:23 23° NNW 06:58:53 10° NNE
Cosmos 2278 Rocket 4.3 06:52:18 10° NNW 06:54:53 13° N 06:57:27 10° NNE
Meteor 1-10 Rocket 4.3 06:52:19 10° SSW 06:57:48 56° WNW 07:03:24 10° N
